This is the latest recevied weather packets stored in our database for station/object WC0AA15WX. If no packets are shown the sender has not sent any weather packets the latest 10 day(s).
| Time | Temp. | Humidity | Pressure | Rain* | Wind** | Luminosity | Snow |
|---|---|---|---|---|---|---|---|
| 1777695914 | 10.56° C | 59% | 1024 hPa | 0 mm | - | - | - |
| 1777695314 | 11.11° C | 60% | 1024 hPa | 0 mm | - | - | - |
| 1777694714 | 11.11° C | 61% | 1024 hPa | 0 mm | - | - | - |
| 1777694114 | 11.11° C | 62% | 1023.7 hPa | 0 mm | - | - | - |
| 1777693514 | 11.67° C | 62% | 1023.7 hPa | 0 mm | - | - | - |
| 1777692914 | 11.67° C | 63% | 1023.7 hPa | 0 mm | - | - | - |
| 1777692314 | 12.22° C | 64% | 1023.7 hPa | 0 mm | - | - | - |
| 1777691714 | 12.22° C | 63% | 1023.4 hPa | 0 mm | - | - | - |
| 1777691114 | 12.22° C | 63% | 1023.4 hPa | 0 mm | - | - | - |
| 1777690514 | 12.22° C | 63% | 1023 hPa | 0 mm | - | - | - |
| 1777689914 | 12.22° C | 63% | 1022.7 hPa | 0 mm | - | - | - |
| 1777689313 | 12.22° C | 62% | 1022.7 hPa | 0 mm | - | - | - |
| 1777688714 | 12.78° C | 62% | 1022.7 hPa | 0 mm | - | - | - |
| 1777688113 | 12.78° C | 61% | 1022.4 hPa | 0 mm | - | - | - |
| 1777687513 | 12.78° C | 60% | 1022.4 hPa | 0 mm | - | - | - |
| 1777686913 | 13.33° C | 59% | 1022 hPa | 0 mm | - | - | - |
| 1777686313 | 13.33° C | 58% | 1022 hPa | 0 mm | - | - | - |
| 1777685713 | 13.89° C | 57% | 1021.8 hPa | 0 mm | - | - | - |
| 1777685113 | 13.89° C | 57% | 1021.7 hPa | 0 mm | - | - | - |
| 1777684513 | 13.89° C | 56% | 1021.7 hPa | 0 mm | - | - | - |
| 1777683913 | 14.44° C | 54% | 1021.3 hPa | 0 mm | - | - | - |
| 1777683313 | 14.44° C | 53% | 1021.3 hPa | 0 mm | - | - | - |
| 1777682713 | 15° C | 51% | 1021.3 hPa | 0 mm | - | - | - |
| 1777682113 | 15.56° C | 49% | 1021.3 hPa | 0 mm | - | - | - |
| 1777681513 | 16.67° C | 47% | 1021.3 hPa | 0 mm | - | - | - |
* Rain latest hour (hover to see other rain measurements)
** Current wind speed in m/s (hover to see current wind gust speed)